#timestamp,LO_Frequency,Hit,StdDev 
1616385615.5,286047000.9,N
1616385635.3,286047000.0,N
1616385655.2,286046999.8,N
1616385675.0,286047001.0,N
1616385675.9,286047001.0,N
1616385695.7,286047000.7,N
1616385715.6,286047001.2,N
1616385735.4,286047000.9,N
1616385755.3,286047001.2,N
1616385775.1,286047000.5,N
1616385776.0,286047000.5,N
1616385795.8,286047000.4,N
1616385815.7,286047000.8,N
1616385835.5,286047000.5,N
1616385855.3,286047001.0,N
1616385875.2,286047001.0,N
1616385895.0,286046999.7,N
1616385895.9,286046999.7,N
1616385915.8,286046999.9,N
1616385935.6,286047000.9,N
1616385955.4,286047000.1,N
1616385975.3,286047001.1,N
1616385995.1,286047000.9,N
1616386015.9,286047000.2,N
1616386035.7,286046999.7,N
1616386055.5,286047000.0,N
1616386075.4,286047002.8,Y
1616386095.2,286047001.1,P
1616386115.0,286047001.2,P
1616386115.9,286047001.2,P
1616386135.8,286046999.0,Y
1616386155.6,286046999.1,P
1616386175.5,286046998.3,N
1616386195.3,286046998.3,N
1616386215.1,286046999.1,N
1616386235.9,286046999.5,N
1616386255.7,286046997.0,Y
1616386275.5,286046999.6,P
1616386295.4,286047000.5,N
1616386315.2,286047001.2,N
1616386335.1,286046998.6,N
1616386336.0,286046998.6,N
1616386355.8,286047000.7,N
1616386375.6,286046998.9,N
1616386395.5,286046998.8,N
1616386415.3,286047000.9,N
1616386435.1,286047000.6,N
1616386455.9,286047000.8,N
1616386475.7,286046998.2,N
1616386495.6,286046998.6,N
1616386515.4,286047000.1,N
1616386535.2,286047002.8,N
1616386555.1,286046999.8,N
1616386556.0,286046999.8,N
1616386575.8,286047000.2,N
1616386595.6,286047000.8,N
1616386615.5,286047001.7,N
1616386635.3,286047001.7,N
1616386655.2,286047001.4,N
1616386675.9,286047002.2,N
1616386695.7,286046999.7,N
1616386715.6,286047001.9,N
1616386735.4,286047001.9,N
1616386755.2,286047002.1,N
1616386775.1,286047002.4,N
1616386776.0,286047002.4,N
1616386795.8,286047002.2,N
1616386815.7,286047001.9,N
1616386835.5,286047001.7,N
1616386855.3,286047003.9,N
1616386875.2,286047003.9,N
1616386895.9,286047003.3,N
1616386915.7,286047002.9,N
1616386935.6,286047004.4,N
1616386955.4,286047004.1,N
1616386975.2,286047003.8,N
1616386995.1,286047003.5,N
1616386996.0,286047003.5,N
1616387015.8,286047004.3,N
1616387035.7,286047003.2,N
1616387055.5,286047002.5,N
1616387075.3,286047002.1,N
1616387095.2,286047001.6,N
1616387115.0,286047001.9,N
1616387115.9,286047001.9,N
1616387135.8,286047004.3,Y
1616387155.6,286047000.2,P
1616387175.4,286047002.3,N
1616387195.3,286047001.4,N
1616387215.1,286047002.0,N
1616387235.8,286047002.3,N
1616387255.7,286047002.7,Y
1616387275.5,286046998.3,P
1616387295.4,286046998.3,N
1616387315.2,286047001.1,N
1616387335.0,286046998.3,N
1616387335.9,286046998.3,N
1616387355.8,286046999.4,N
1616387375.6,286047000.4,N
1616387395.4,286047004.1,Y
1616387415.3,286047001.6,P
1616387435.1,286046999.7,N
1616387455.9,286047000.1,N
1616387475.7,286046999.9,N
1616387495.5,286047001.0,N
1616387515.4,286047000.8,N
1616387535.2,286047002.5,Y
1616387555.0,286046999.9,P
1616387555.9,286046999.9,N
1616387575.8,286047000.0,N
1616387595.6,286047001.2,Y
1616387615.5,286047000.8,P
1616387635.3,286047001.2,P
1616387655.1,286047000.4,N
1616387675.9,286047002.8,Y
1616387695.7,286046998.1,P
1616387715.5,286046999.3,N
1616387735.4,286046996.9,P
1616387755.2,286046996.7,N
1616387775.1,286046997.4,N
1616387776.0,286046997.4,N
1616387795.8,286046997.6,N
1616387815.6,286046997.9,N
1616387835.5,286046998.9,N
1616387855.3,286046998.4,N
1616387875.1,286046999.6,N
1616387895.9,286046996.8,N
1616387915.7,286046996.7,N
1616387935.6,286046997.3,N
1616387955.4,286046996.8,N
1616387975.2,286046997.7,N
1616387995.1,286046994.9,Y
1616387996.0,286046994.9,P
1616388015.8,286046999.2,N
1616388035.6,286046998.3,N
1616388055.5,286046999.4,N
1616388075.3,286046996.8,N
1616388095.2,286046996.8,N
1616388115.9,286046996.7,N
1616388135.7,286046999.2,N
1616388155.6,286046998.4,N
1616388175.4,286046999.2,N
1616388195.2,286046999.3,N
1616388215.1,286046998.7,N
1616388216.0,286046998.7,N
1616388235.8,286046999.2,N
1616388255.7,286046996.6,N
1616388275.5,286046996.8,N
1616388295.3,286046997.2,N
1616388315.2,286046997.0,N
1616388335.0,286046996.7,N
1616388335.9,286046996.7,N
1616388355.7,286046996.6,N
1616388375.6,286046998.8,N
1616388395.4,286046998.8,N
1616388415.3,286047000.7,N
1616388435.1,286046999.4,N
1616388436.0,286046999.4,N
1616388455.8,286046999.2,N
1616388475.7,286046996.9,N
1616388495.5,286046998.9,N
1616388515.3,286046996.7,N
1616388535.2,286046997.1,N
1616388555.0,286046997.4,N
1616388555.9,286046997.4,N
1616388575.8,286046997.4,N
1616388595.6,286046997.3,N
1616388615.4,286046998.0,N
1616388635.3,286046995.6,Y
1616388655.1,286046998.6,P
1616388675.8,286046998.3,P
1616388695.7,286046999.5,N
1616388715.5,286046999.0,N
1616388735.4,286046996.8,Y
1616388755.2,286047000.9,P
1616388775.0,286046999.7,N
1616388775.9,286046999.7,N
1616388795.8,286047000.6,N
1616388815.6,286047000.1,N
1616388835.5,286047000.2,N
1616388855.3,286046999.8,N
1616388875.1,286047000.4,N
1616388895.9,286047001.2,N
1616388915.7,286047001.1,N
1616388935.5,286046999.9,N
1616388955.4,286047000.3,N
1616388975.2,286046998.6,N
1616388995.0,286047000.7,N
1616388996.0,286047000.7,N
1616389015.8,286046998.1,N
1616389035.6,286046998.5,N
1616389055.5,286046998.6,N
1616389075.3,286046998.6,N
1616389095.1,286046998.1,N
1616389115.9,286046999.0,N
1616389135.7,286046998.2,N
1616389155.5,286047000.4,N
1616389175.4,286046998.1,N
1616389195.2,286046998.5,N
